Погода в Николе

Россия / Вологодская область     58°32′35″N   36°23′19″E
темп.,
°C
ветер,
м/с
пор.,
м/с
влажн.,
%
обл.,
%
осадки,
мм/ч
давл.,
гПа
погр.,
м
13 июня, вс
вс1300:00+13ю2298100 1.7 100526
03:00+12ю229823 1.7 100540
06:00+14ю24950 0.0 1005151
09:00+19ю34705 0.0 1005661
12:00+23ю34495 0.2 10051786
15:00+25ю343986 0.2 10042585
18:00+20ю1268100 0.0 100546
21:00+18ю2575100 0.0 1006106
14 июня, пн
пн1400:00+17ю2473100 0.0 100787
03:00+17ююз2472100 0.0 100886
06:00+17юз2577100 0.0 1010143
09:00+22з24607 0.0 1011744
12:00+23зюз3563100 0.8 10121482
15:00+21зсз357964 3.1 1013995
18:00+22сз445817 0.2 10131256
21:00+17зсз227999 0.2 101411
15 июня, вт
вт1500:00+14всв229236 0.0 101517
03:00+12всв119586 0.0 101410
06:00+15ююв128814 0.0 1014141
09:00+20юз34621 0.0 1013842
12:00+23юз4552100 0.0 10111765
15:00+22ююз3555100 0.0 10101294
18:00+21з4758100 0.0 1009622
21:00+17зюз2278100 0.0 100937
16 июня, ср
ср1600:00+13сз2581100 0.0 101094
03:00+13зсз3896100 0.5 1011360
06:00+14сз369721 2.3 1012311
09:00+17сз46624 2.4 1013972
12:00+21сз58335 0.1 10132739
15:00+21сз57315 0.1 10142733
18:00+20ссз57395 0.0 10161973
21:00+13ссз39585 0.0 1018209
17 июня, чт
чт1700:00+10сз28655 0.0 1020153
03:00+8сз27715 0.0 1022138
06:00+11сз28670 0.0 1023225
09:00+18сз47420 0.0 10241062
12:00+21ссз45345 0.0 10251809
15:00+23ссз353394 0.0 10242100
18:00+23сз24436 0.0 10241896
21:00+16з22675 0.0 102512